Location: Jackson Park
(37.2862°N, 79.9123°W)
Time: 23:19:38
(UTC+00:00)

Transit 4A - Pass Details

Date: 13 May 2026
Orbit: 861 x 980 km, 66.8° (Epoch: 5 June)

Event Time Altitude Azimuth Distance (km) Brightness Sun altitude
Rises 00:14:41 0° 318° (NW) 3,687 12.4 0.0°
Reaches altitude 10° 00:17:44 10° 306° (NW) 2,733 12.3 -0.6°
Maximum altitude 00:22:41 24° 255° (WSW) 1,886 10.3 -1.5°
Drops below altitude 10° 00:27:35 10° 203° (SSW) 2,689 10.3 -2.4°
Sets 00:30:35 0° 190° (S) 3,614 10.8 -2.9°
